IZ3VCM Weather Reports


Display with metric or nautical units.
time (UTC)temp
F
wind
direction
speed
MPH
gust
MPH
rain 1hr
in
rain 24hr
in
rain mn
in
humidity
%
barometer
mb
20260903194503 80 157 1.0 4.0 0.00 0.00 0.00 63 1017.4
20260903193006 80 157 1.0 3.0 0.00 0.00 0.00 61 1017.2
20260903191504 80 157 1.0 2.0 0.00 0.00 0.00 59 1017.2
20260903190006 81 135 2.0 3.0 0.00 0.00 0.00 57 1017.2
20260903184503 81 135 2.0 4.0 0.00 0.00 0.00 56 1017.1
20260903183006 81 135 2.0 4.0 0.00 0.00 0.00 57 1017.1
20260903181504 81 135 2.0 3.0 0.00 0.00 0.00 58 1016.8
20260903180006 82 0 0.0 0.0 0.00 0.00 0.00 58 1016.8
20260903174506 83 0 0.0 0.0 0.00 0.00 0.00 57 1016.7
20260903173008 87 0 0.0 0.0 0.00 0.00 0.00 54 1016.6
20260903171506 88 0 0.0 0.0 0.00 0.00 0.00 50 1016.8
20260903170008 90 0 0.0 0.0 0.00 0.00 0.00 49 1016.6
20260903164506 92 0 0.0 0.0 0.00 0.00 0.00 48 1016.7
20260903163009 93 0 0.0 0.0 0.00 0.00 0.00 47 1016.5
20260903161506 92 0 0.0 0.0 0.00 0.00 0.00 46 1016.4
20260903160008 93 135 1.0 3.0 0.00 0.00 0.00 46 1016.3
20260903154506 93 135 0.0 3.0 0.00 0.00 0.00 45 1016.4
20260903153009 93 156 3.0 6.0 0.00 0.00 0.00 44 1016.4
20260903151506 95 181 0.0 3.0 0.00 0.00 0.00 44 1016.1
20260903150008 93 0 0.0 0.0 0.00 0.00 0.00 44 1016.7
20260903144506 92 0 0.0 0.0 0.00 0.00 0.00 47 1016.9
20260903143009 94 0 0.0 0.0 0.00 0.00 0.00 44 1017.0
20260903141506 95 0 0.0 0.0 0.00 0.00 0.00 44 1017.1
20260903140008 94 324 2.0 3.0 0.00 0.00 0.00 44 1017.0
20260903134506 95 292 1.0 4.0 0.00 0.00 0.00 42 1017.1
20260903133008 94 23 2.0 4.0 0.00 0.00 0.00 44 1017.2
20260903131506 94 51 2.0 5.0 0.00 0.00 0.00 45 1017.3
20260903130008 94 135 1.0 3.0 0.00 0.00 0.00 45 1017.4
20260903124506 95 23 0.0 1.0 0.00 0.00 0.00 42 1017.6
20260903123008 94 0 0.0 0.0 0.00 0.00 0.00 44 1017.7
20260903121506 94 23 1.0 6.0 0.00 0.00 0.00 44 1017.6
20260903120008 93 23 2.0 4.0 0.00 0.00 0.00 46 1017.6
20260903114506 93 23 1.0 4.0 0.00 0.00 0.00 44 1017.7
20260903113008 92 1 1.0 2.0 0.00 0.00 0.00 47 1017.9
20260903111506 92 13 1.0 3.0 0.00 0.00 0.00 44 1018.1
20260903110008 92 45 3.0 5.0 0.00 0.00 0.00 48 1018.4
20260903104506 92 107 0.0 4.0 0.00 0.00 0.00 47 1018.4
20260903103007 92 45 1.0 4.0 0.00 0.00 0.00 47 1018.5
20260903101506 92 45 1.0 2.0 0.00 0.00 0.00 48 1018.8
20260903100007 92 68 0.0 1.0 0.00 0.00 0.00 48 1018.9
20260903094506 92 45 2.0 4.0 0.00 0.00 0.00 48 1019.1
20260903093007 91 46 0.0 2.0 0.00 0.00 0.00 49 1019.1
20260903091506 90 68 0.0 2.0 0.00 0.00 0.00 53 1019.2
20260903090008 90 90 0.0 1.0 0.00 0.00 0.00 53 1019.2
20260903084505 89 23 1.0 3.0 0.00 0.00 0.00 54 1018.9
20260903083008 88 23 1.0 2.0 0.00 0.00 0.00 55 1019.1
20260903081506 86 68 1.0 3.0 0.00 0.00 0.00 59 1019.1
20260903080007 85 62 1.0 2.0 0.00 0.00 0.00 60 1019.0
20260903074506 83 45 2.0 3.0 0.00 0.00 0.00 62 1019.1
20260903073007 83 45 1.0 4.0 0.00 0.00 0.00 63 1018.7
20260903071505 82 45 0.0 2.0 0.00 0.00 0.00 64 1018.7
20260903070009 83 0 0.0 0.0 0.00 0.00 0.00 62 1018.7
20260902221506 74 0 0.0 0.0 0.00 0.00 0.00 75 1017.1
20260902220009 74 0 0.0 0.0 0.00 0.00 0.00 74 1017.0
20260902214506 74 135 1.0 2.0 0.00 0.00 0.00 73 1016.8
20260902213010 73 135 1.0 2.0 0.00 0.00 0.00 74 1016.7
20260902211507 74 0 0.0 0.0 0.00 0.00 0.00 71 1016.6
20260902210009 75 135 1.0 2.0 0.00 0.00 0.00 70 1016.7
20260902204507 76 135 1.0 3.0 0.00 0.00 0.00 68 1016.6
20260902203009 77 135 2.0 4.0 0.00 0.00 0.00 67 1016.7
20260902201507 77 135 1.0 2.0 0.00 0.00 0.00 66 1016.6
20260902200010 78 135 3.0 4.0 0.00 0.00 0.00 66 1016.5